Regional Weather Roundup
Issued by NWS

Home | Current Version | Previous Version | Graphics & Text | Print | Product List | Glossary On
Versions: 1 2 3 4 5 6 7 8 9 10 11 12 13 14 15 16 17 18 19 20 21 22 23 24 25 26 27 28 29 30 31 32 33 34 35 36 37 38 39 40 41 42 43 44 45 46 47 48 49 50
000
ASUS43 KMKX 300600
RWRWI

WISCONSIN REGIONAL WEATHER ROUNDUP
NATIONAL WEATHER SERVICE MILWAUKEE/SULLIVAN WI
100 AM CDT SAT AUG 30 2014

NOTE: "FAIR" INDICATES FEW OR NO CLOUDS BELOW 12,000 FEET WITH NO
SIGNIFICANT WEATHER AND/OR OBSTRUCTIONS TO VISIBILITY.

WIZ001-002-006>008-014>016-023>028-300700-
NORTHWEST WISCONSIN

CITY           SKY/WX    TMP DP  RH WIND       PRES   REMARKS
SUPERIOR ARPT  CLOUDY    62  61  99 CALM      29.79S
ASHLAND        CLOUDY    63  62  97 N7        29.80R FOG
6HR MIN TEMP:  63; 6HR MAX TEMP:  67; 6HR PCP:  0.07;

HAYWARD        LGT RAIN  64  64 100 CALM      29.79S
6HR MIN TEMP:  64; 6HR MAX TEMP:  68; 6HR PCP:  0.24;

SIREN          RAIN      66  65  97 NE6       29.79R
RICE LAKE      LGT RAIN  65  64  96 CALM      29.79F
6HR MIN TEMP:  64; 6HR MAX TEMP:  68;

LADYSMITH      LGT RAIN  65  64  97 CALM      29.80S
EAU CLAIRE     NOT AVBL
MENOMONIE      LGT RAIN  67  66  99 CALM      29.75F
NEW RICHMOND   RAIN      65  65  99 CALM      29.78F
OSCEOLA        LGT RAIN  67  67 100 CALM      29.80S
$$

WIZ003>005-009-010-017-018-300700-
NORTH CENTRAL WISCONSIN

CITY           SKY/WX    TMP DP  RH WIND       PRES   REMARKS
WOODRUFF       LGT RAIN  64  63  95 S5        29.81S
RHINELANDER    LGT RAIN  63  62  97 SE5       29.84R
6HR MIN TEMP:  63; 6HR MAX TEMP:  68; 6HR PCP:  0.25;

EAGLE RIVER    FAIR      63  63 100 S5        29.82R
LAND O LAKES   DRIZZLE   64  64  99 CALM      29.82S
PHILLIPS       DRIZZLE   64  63  99 CALM      29.80R
TOMAHAWK       DRIZZLE   63  62  97 CALM      29.83R
MEDFORD        CLOUDY    63  63  99 CALM      29.81R
MERRILL        LGT RAIN  65  65 100 SE7       29.83R
$$

WIZ029-030-035-036-043>047-300700-
CENTRAL WISCONSIN

CITY           SKY/WX    TMP DP  RH WIND       PRES   REMARKS
WAUSAU         RAIN      66  65  96 SE6       29.82R FOG
6HR MIN TEMP:  65; 6HR MAX TEMP:  75; 6HR PCP:  0.72;

MOSINEE        RAIN      64  64 100 SE7       29.85R
MARSHFIELD     RAIN      67  65  93 SE8       29.81R FOG
6HR MIN TEMP:  66; 6HR MAX TEMP:  75; 6HR PCP:  0.49;

STEVENS POINT  RAIN      64  64  99 SE3       29.84F
WAUPACA        LGT RAIN  72  67  83 W3        29.81F
WAUTOMA        CLOUDY    70  66  88 N7        29.80F FOG
WISC RAPIDS    LGT RAIN  67  66  97 E6        29.81F
6HR MIN TEMP:  67; 6HR MAX TEMP:  80; 6HR PCP:  0.95;

CAMP DOUGLAS   DRIZZLE   68  68 100 E2        29.79F
$$

WIZ011>013-019>022-031-037>040-048>050-300700-
NORTHEAST WISCONSIN

CITY           SKY/WX    TMP DP  RH WIND       PRES   REMARKS
ANTIGO         RAIN      64  64 100 SE5       29.86S
STURGEON BAY   FAIR      70  66  88 S10       29.82F
6HR MIN TEMP:  70; 6HR MAX TEMP:  72;

GREEN BAY      FAIR      72  70  93 S5        29.80F FOG
6HR MIN TEMP:  72; 6HR MAX TEMP:  78;

MANITOWOC      NOT AVBL
APPLETON       MOCLDY    73  70  88 S6        29.81S
CLINTONVILLE   CLOUDY    70  63  78 NW6       29.83R
OSHKOSH        TSTM      73  68  84 S9        29.80S
6HR MIN TEMP:  73; 6HR MAX TEMP:  79; 6HR PCP:  0.03;

$$

WIZ032>034-041-042-053>061-300700-
SOUTHWEST WISCONSIN

CITY           SKY/WX    TMP DP  RH WIND       PRES   REMARKS
LA CROSSE      HVY RAIN  69  67  93 E6        29.76R FOG
6HR MIN TEMP:  69; 6HR MAX TEMP:  76; 6HR PCP:  0.39;

SPARTA         CLOUDY    67  66  96 E5        29.78S
VIROQUA        CLOUDY    67  67 100 E5        29.78F
BOSCOBEL       LGT RAIN  71  68  90 S5        29.77F
6HR MIN TEMP:  71; 6HR MAX TEMP:  82;

PRAIRIE DU CHI DRIZZLE   69  67  91 S5        29.78R
PLATTEVILLE    CLOUDY    72  69  92 S12       29.81S
$$

WIZ056-057-062-063-064-067-068-300700-
SOUTH CENTRAL WISCONSIN

CITY           SKY/WX    TMP DP  RH WIND       PRES   REMARKS
BARABOO/DELLS  RAIN      71  68  91 CALM      29.79F
LONE ROCK      RAIN      75  70  83 S9        29.77F
WATERTOWN      FAIR      71  69  92 SE7       29.81F
MADISON        MOCLDY    73  67  81 S12       29.81S
6HR MIN TEMP:  73; 6HR MAX TEMP:  82; 6HR PCP:  0.01;

MIDDLETON      MOCLDY    74  67  76 S12G17    29.81S
MONROE         CLOUDY    70  68  94 S10       29.82S
JANESVILLE     FAIR      73  68  83 S10       29.83S
$$

WIZ051-052-058>065-066-070>072-300700-
SOUTHEAST WISCONSIN

CITY           SKY/WX    TMP DP  RH WIND       PRES   REMARKS
MILWAUKEE      CLOUDY    73  69  87 S10       29.84F
6HR MIN TEMP:  73; 6HR MAX TEMP:  77; 6HR PCP:  0.07;

WAUKESHA       FAIR      70  68  94 SE9       29.84F
MILWAUKEE/TIMM FAIR      72  68  88 SE6       29.84F
RACINE         FAIR      73  69  87 S15       29.86F
6HR MIN TEMP:  73; 6HR MAX TEMP:  76;

BURLINGTON     FAIR      69  68  96 S7        29.84F
KENOSHA        FAIR      74  70  87 S10       29.85F
6HR MIN TEMP:  73; 6HR MAX TEMP:  78;

FOND DU LAC    FAIR      73  68  84 S7        29.80F
6HR MIN TEMP:  73; 6HR MAX TEMP:  80; 6HR PCP:  0.01;

SHEBOYGAN      MOCLDY    72  70  93 S9        29.82F FOG
6HR MIN TEMP:  72; 6HR MAX TEMP:  74; 6HR PCP:  0.04;

WEST BEND      FAIR      70  64  83 CALM      29.83F
JUNEAU         MOCLDY    72  66  83 SE10      29.82F
$$

LSZ147-162-300700-
LAKE SUPERIOR

STATION/POSITION TIME  TEMP    WIND        PRES    WAVE
                       AIR SEA DIR/SP/G            HT/PER
                 (UTC) (F)     (DEG/KT/KT) (MB)    (FT/S)
W MID LAKE BUOY  0450   58 58   20/  6/  8 1008.4S   0
DEVILS ISLAND    0500   60      30/  6/  6 1008.7F
PORT WING        0540   62      CALM  /  2 1009.1S
SAXON HARBOR     0500   65      40/  6/  7 1008.5F
$$

LMZ867-665-643>646-300700-
LAKE MICHIGAN

STATION/POSITION TIME  TEMP    WIND        PRES    WAVE
                       AIR SEA DIR/SP/G            HT/PER
                 (UTC) (F)     (DEG/KT/KT) (MB)    (FT/S)
N MID LAKE BUOY  0450   69 65  190/ 17/ 19 1009.4F   4/ 6
NORTHPORT PIER   0500   69     180/  8/ 19 1010.2S
SISTER BAY       0541   70     230/  5/  7   N/A
KEWAUNEE LAKESHO 0500   65     180/  7/  9 1009.4S
SHEBOYGAN LAKESH 0500   70 63  180/ 19/ 20 1010.0F
ATWATER BUOY     0500   72     160/ 12/ 16 1011.5F
MILWAUKEE LAKESH 0500   72     150/ 10/ 11   N/A
S MID LAKE BUOY  0450   72 69  160/ 16/ 19 1011.5F
KENOSHA   LAKESH 0500   70     170/ 15/ 17 1010.8F
$$

TC  - TEMPERATURE IN CELSIUS
VSB - VISIBILITY IN STATUTE MILES
WCI - WIND CHILL INDEX
HX  - HEAT INDEX



USA.gov is the U.S. government's official web portal to all federal, state and local government web resources and services.